Location: Gad�tanya
(48.0500°N, 20.8500°E)
Time: 11:02:17
(UTC+00:00)

Cosmos 1315 Rocket - Pass Details

Date: 05 July 2020
Orbit: 530 x 568 km, 81.2° (Epoch: 14 August)

Event Time Altitude Azimuth Distance (km) Brightness Sun altitude
Rises 20:46:06 0° 343° (NNW) 2,754 8.1 -14.7°
Reaches altitude 10° 20:48:19 10° 338° (NNW) 1,859 6.9 -14.9°
Maximum altitude 20:52:17 48° 264° (W) 741 3.6 -15.2°
Enters shadow 20:54:54 19° 197° (SSW) 1,355 4.4 -15.4°
